Location: L�Ave Maria
(50.7161°N, 1.5911°E)
Time: 00:33:02
(UTC+00:00)

Cosmos 1371 Rocket - Pass Details

Date: 10 July 2020
Orbit: 754 x 790 km, 74.0° (Epoch: 02 August)

Event Time Altitude Azimuth Distance (km) Brightness Sun altitude
Rises 21:15:29 0° 337° (NNW) 3,249 9.1 -8.8°
Reaches altitude 10° 21:17:55 10° 341° (NNW) 2,324 7.9 -9.0°
Maximum altitude 21:23:08 59° 61° (ENE) 894 4.3 -9.5°
Enters shadow 21:27:51 13° 140° (SE) 2,139 5.6 -9.9°
